Terminal Aerodrome Forecast
Issued by NWS Key West, FL

Home | Current Version | Previous Version | Text Only | Print | Product List | Glossary On
Versions: 1 2 3 4 5 6 7 8 9 10 11 12 13 14 15 16 17 18 19 20 21 22 23 24 25 26 27 28 29 30 31 32 33 34 35 36 37 38 39 40 41 42
000
FTUS42 KKEY 070341 AAB
TAFEYW
TAF AMD
KEYW 070341Z 0704/0724 36010G17KT P6SM SCT005 BKN015
      TEMPO 0704/0708 BKN003
     FM070900 03009KT P6SM SCT005 BKN010
     FM071700 05010KT P6SM SCT015=

USA.gov is the U.S. government's official web portal to all federal, state and local government web resources and services.